2019 QZ
ephemeris date magn radius delta ra dec elong phase
Today18 Oct 202529.61.773 AU2.769 AU13h32m-10°11'0.8°0.5°
2019 QZ - 2025-10-18
astro.vanbuitenen.nl


 
-1 year
-1 month
-1 day
Now
+1 day
+1 month
+1 year

The interactive orbit chart above shows the body's path through the solar system and its position at the given date. Green and blue lines are shown perpendicular to the ecliptic plane: Green if the path is above the ecliptic plane, blue if it is below. (Left-click and drag to rotate the view; Right-click and drag to move the view; Use scroll wheel to zoom in our out.)

The orbital elements of 2019 QZ are:

            e (Eccentricity)                : 0.2773182
            a (Semimajor axis)              : 1.4178582
            i (Inclination)                 : 1.27078
            Ω (Longitude of ascending node) : 349.61509
            ω (Argument of perihelion)      : 16.73969
            M (Mean anomaly)                : 115.32785
            Epoch                           : 2025 May 05

            L (Longitude of perihelion)     : 6.35089
            B (Latitude of perihelion)      : 0.36599
            P (Orbital period in years)     : 1.69            
        

The light curve chart below shows the estimated development of the minor planet's magnitude.


The all-sky chart below shows the path of the minor planet over the same period as the light curve. The current position is marked yellow.





The following chart shows the path of the minor planet in the next few days. The field of view is optimized for (~10x50) binoculars and finderscopes.




Ephemerides:
Date       Time       RA (2000)    DEC (2000)    delta   radius  elong  phase   PA    magn
2025-10-18 00:00 UT   13 32 43.4   -10 11 52     2.769    1.773    0.8    0.5   146   29.6 
2025-10-18 20:14 UT   13 34 35.5   -10 22 54     2.768    1.772    0.6    0.3   165   29.5 
2025-10-19 00:00 UT   13 34 56.4   -10 24 57     2.768    1.772    0.6    0.3   171   29.5 
2025-10-20 00:00 UT   13 37 09.7   -10 37 59     2.766    1.770    0.5    0.3   215   29.5 
2025-10-21 00:00 UT   13 39 23.4   -10 50 59     2.764    1.769    0.7    0.4   248   29.5 
2025-10-22 00:00 UT   13 41 37.4   -11 03 57     2.762    1.767    1.1    0.6   263   29.6 
2025-10-23 00:00 UT   13 43 51.8   -11 16 51     2.760    1.766    1.4    0.8   270   29.6 
2025-10-24 00:00 UT   13 46 06.5   -11 29 43     2.758    1.764    1.8    1.0   275   29.6 
2025-10-25 00:00 UT   13 48 21.7   -11 42 33     2.756    1.763    2.2    1.2   277   29.6 
2025-10-26 00:00 UT   13 50 37.2   -11 55 19     2.754    1.761    2.6    1.5   279   29.6 
2025-10-27 00:00 UT   13 52 53.1   -12 08 03     2.751    1.760    3.0    1.7   281   29.6 
2025-10-28 00:00 UT   13 55 09.3   -12 20 44     2.749    1.758    3.4    1.9   282   29.7 
2025-10-29 00:00 UT   13 57 26.0   -12 33 21     2.746    1.756    3.8    2.1   282   29.7 
2025-10-30 00:00 UT   13 59 43.1   -12 45 55     2.744    1.755    4.2    2.4   283   29.7 
2025-10-31 00:00 UT   14 02 00.5   -12 58 26     2.741    1.753    4.6    2.6   283   29.7 
2025-11-01 00:00 UT   14 04 18.4   -13 10 54     2.738    1.751    5.0    2.8   284   29.7 


    Terminology:
            
    delta:  distance between minor planet and earth in AU
    radius: distance between minor planet and sun in AU
    magn:   magnitude (brightness) estimate    
    ra:     right ascension in hours (24h = 360deg)
    dec:    declination in degrees
    elong:  elongation in degrees (angle sun-earth-minor planet)    
    phase:  phase angle in degrees (angle sun-minor planet-earth)        
    AU:     Astronomical Unit (mean distance between earth and sun: 149597870.7 km
    

Orbital elements provided by the MPC (Minor Planet Center).
Calculations by a modified version of AAPlus, a C# implementation of the AA+ project by PJ Naughter from the algorithms presented in the book "Astronomical Algorithms" by Jean Meeus.
NGC2000 dso catalog and star labels from VizieR as provided by the Strasbourg astronomical Data Center.
Tycho2 catalog from the ESO archive.